STARLINK-34598, 64759

Orbit data source: Space-Track

STARLINK-34598, 64759 is a payload satellite owned by SpaceX/Seattle (US) in LEO that was launched on Tue, 08 Jul 2025 UTC via an FALCON 9 launch vehicle from the Air Force Eastern Test Range (AFETR). Payload-class satellites include a variety of spacecraft equipped with specific instruments for various scientific and technological missions. These include communications satellites like Starlink; space stations such as the ISS; scientific satellites like the Hubble; Earth observation satellites from companies like Planet Labs, Umbra, and HawkEye 360; GPS; miniature CubeSats for education and research; and military/defense satellites.

Loading next visibility...
Identifier
64759, 2025-147E
Orbit
LEO
Country
Flag of USUS
Related business
Manufacturer
SpaceX/Seattle
Mission
Operational Commercial Communications
Bus & Motor
STARLINK V2MO, Unknown motor
Mass
575 kg wet, ~530 kg dry
Launch date (UTC)
2025-07-08 (1 year ago)
Launch vehicle
FALCON 9
Launch site
Air Force Eastern Test Range (AFETR)
Object type
Payload
Rocket body
Debris
Shape & HBR
Box + 1 Pan, 17.7 m
Radar Cross Section
41.120 m², Large (>1 m²)

Expand to show TLE details & history
Last TLE update: 18 hours ago

TLE from 18 hours ago
0 STARLINK-34598
1 64759U 25147E   26221.36568167  .00013309  00000-0  40412-3 0  9995
2 64759  53.1582 250.9985 0001190  63.3141 296.7983 15.34416501 62118
Epoch: 2026-08-09T08:46Z
TLE epoch observation values (Epoch: 2026-08-09T08:46:34.896Z)
Latitude
-0.00004°
Longitude
161.48936°
Altitude
463.188 km
Speed
7.636 km/s
True Right ascension
16h 43m 59s
True Declination
0° 00' 00"
Sunlit
Object was in daylight at epoch
Visualization orbit readout
Latitude
Unknown
Longitude
Unknown
Altitude
Unknown
Speed
Unknown
Apparent Right ascension
Unknown
Apparent Declination
Unknown
Sunlit
N/A
Visualization observer readout
Local Sidereal Time
16:38:59
Azimuth
Unknown
Elevation
Unknown
Doppler factor
Unknown
Orbital elements
Apogee altitude
463.725 km
Perigee altitude
462.097 km
Semi-major axis
6,841.048 km
Eccentricity
0.00012
Inclination
53.1582°
RAAN
250.9985°
Arg. of periapsis
63.3141°
True anomaly
296.78613°
Mean anomaly
296.7983°
Eccentric anomaly
296.79221°
Mean motion
3.83583 °/min
Orbital period
93.85 mins
BSTAR
0.00040412
Loading maneuver chart data...
Computing Atmospheric mass density...
Loading historical data...
Loading historical data...
Loading historical data...
Loading historical data...
Loading historical data...
Loading historical data...
Loading historical data...

Documentation

Showing up to 5 results
|